Theta_e
315 317 316 320 322 323 330 329 331 335 331 324 323 327 323 322 327 325 327 328 330 328 329 332 332 334 338 341 339 339 339 342 344 341 343 340 335 337 335 334 332 333 336 337 339 339 339 339 338 335 332 331 329 327 328 333 333 331 332 332 332 333 332 332 332 332 332 332 333 334 334 334 334 334 333 333 334 335 334 334 335 335 334 333 332 331 330 328 326 325 324 322 321 318 314 311 313
316 317 317 322 323 324 334 330 326 331 330 323 321 324 321 327 331 327 329 329 328 328 332 334 332 333 336 338 338 342 342 338 340 340 338 336 334 334 334 334 334 335 336 338 338 338 339 338 336 333 332 331 330 329 331 333 332 331 332 331 332 332 332 332 332 333 333 333 332 333 334 334 333 333 333 332 333 334 333 334 335 335 334 333 331 331 330 328 327 325 324 323 322 321 319 315 312
316 316 319 325 326 326 335 333 324 324 326 321 317 322 325 330 331 328 329 329 329 331 333 333 334 331 332 340 341 344 343 337 337 337 336 335 333 333 335 335 335 336 336 338 338 338 338 336 334 333 331 330 330 331 333 333 333 331 331 331 331 331 332 332 332 333 332 332 331 333 334 333 333 334 334 333 333 333 332 334 335 335 334 332 330 329 329 329 327 325 324 323 323 321 321 317 313
317 319 321 324 330 333 334 330 326 326 323 320 318 322 330 331 331 329 329 331 332 333 331 332 335 329 333 343 341 342 341 338 338 336 336 335 333 332 336 335 335 335 336 337 337 337 336 335 333 331 331 331 333 333 333 334 333 332 331 331 330 331 331 331 331 331 331 330 331 332 333 333 333 334 334 333 333 334 333 334 334 333 331 329 329 328 328 328 326 324 324 322 322 320 319 317 313
320 321 322 323 330 334 330 324 330 329 319 323 323 323 331 331 332 331 331 332 333 334 331 331 333 327 334 341 339 343 342 339 338 336 336 335 333 331 333 333 335 336 336 337 337 337 334 333 330 328 330 333 333 330 332 334 334 333 331 331 331 330 330 329 330 330 331 330 330 331 332 333 333 334 334 333 333 334 334 333 332 331 329 328 329 328 327 327 326 324 322 321 319 317 317 316 313
321 321 322 324 327 327 327 325 329 326 317 326 325 324 332 329 332 332 331 333 333 335 333 331 331 332 339 338 337 341 339 339 338 336 336 335 333 331 330 331 335 338 337 336 336 336 334 332 330 326 327 333 333 328 331 334 333 333 332 331 330 329 329 331 331 331 332 331 331 331 332 333 332 332 334 333 333 334 333 332 331 331 330 329 329 328 329 328 326 322 320 318 316 316 317 316 316
321 322 327 330 330 326 327 326 327 327 319 324 324 325 331 328 331 332 331 333 331 332 331 331 331 336 339 338 340 339 337 337 337 336 336 335 333 330 328 329 335 338 337 336 335 336 334 333 330 325 325 331 331 327 328 332 332 333 331 330 330 329 330 332 332 331 332 332 332 332 333 333 332 332 334 334 334 334 333 331 330 330 329 328 329 329 330 328 324 320 318 316 316 317 318 317 317
320 323 330 331 333 331 329 327 329 331 321 319 323 326 329 329 332 331 331 332 331 330 329 330 330 334 335 339 343 339 337 337 337 336 336 336 333 330 329 330 334 336 336 334 333 335 335 333 331 326 325 328 330 329 328 330 332 332 330 329 331 331 330 330 330 330 331 332 331 331 333 333 332 332 332 333 334 333 332 331 330 329 326 327 328 328 328 325 321 319 317 316 316 317 318 317 318
320 323 331 329 332 333 331 331 327 325 321 320 323 325 328 329 331 329 329 329 328 329 329 329 329 334 336 340 341 337 337 337 336 337 336 337 334 331 329 330 333 335 334 333 332 333 334 333 331 328 326 325 330 331 328 328 329 331 330 330 332 331 330 329 329 329 330 331 330 330 332 332 332 331 331 331 332 332 332 331 331 328 326 328 329 327 327 325 321 318 317 317 317 317 317 317 317
323 323 330 332 332 330 331 334 325 321 322 322 322 325 327 327 328 326 325 325 326 329 328 328 329 336 339 340 340 338 337 336 336 336 337 336 334 331 329 330 331 333 334 333 332 331 332 333 331 329 326 326 331 332 329 327 328 330 331 332 332 331 331 329 329 329 329 330 329 330 330 331 332 331 331 331 331 331 332 331 330 328 326 327 327 326 326 324 321 318 318 317 317 316 316 316 316
328 328 330 331 331 327 330 330 323 322 320 321 322 324 326 327 327 324 323 324 328 330 328 327 327 335 340 340 341 339 336 337 337 337 336 335 335 332 329 330 330 331 332 333 332 329 330 332 330 329 326 326 331 332 330 327 329 331 331 331 332 331 332 330 329 330 331 331 330 330 330 331 332 332 332 331 330 330 330 330 329 327 326 326 326 326 325 322 320 318 318 317 317 317 316 316 316
329 334 331 327 331 329 331 328 320 322 321 320 321 321 326 327 326 324 324 326 331 331 328 329 324 330 339 342 342 337 336 337 337 337 336 335 335 332 329 330 330 331 332 332 332 329 329 332 329 327 326 325 328 331 329 327 330 331 330 330 330 329 330 331 330 330 330 331 330 330 330 330 330 331 332 331 330 329 329 329 328 327 326 325 326 325 322 320 319 318 318 318 318 317 317 317 317
327 333 330 328 337 333 332 329 321 324 324 323 321 321 325 326 327 325 323 325 329 331 329 328 325 334 342 342 341 336 337 337 337 337 335 335 334 331 330 330 331 331 332 331 329 329 330 332 329 326 326 326 327 329 328 327 329 331 330 329 328 327 327 329 330 330 329 329 329 330 329 328 329 330 330 330 330 328 328 328 327 327 326 325 325 324 321 319 319 318 318 318 318 318 319 318 318
327 332 329 331 339 333 333 330 326 328 325 325 323 322 324 324 327 325 324 326 327 329 328 324 328 342 344 340 341 338 337 336 337 336 334 336 333 331 331 330 331 330 330 329 325 327 331 331 328 327 327 327 327 328 328 328 329 331 330 328 328 327 327 327 328 329 329 328 328 329 328 327 328 329 329 330 330 328 327 327 326 326 326 325 324 321 319 319 318 318 318 318 319 318 319 319 320
327 333 329 330 335 333 335 332 331 331 323 324 323 322 325 324 325 325 327 330 328 326 325 323 325 337 341 342 345 338 336 337 336 335 335 335 333 332 331 330 331 330 330 329 323 324 328 328 327 327 329 329 328 328 327 328 330 331 330 328 327 327 327 327 326 327 328 328 328 328 328 327 327 328 329 329 329 328 326 326 326 326 326 324 321 319 318 319 318 318 318 318 318 319 319 319 320
328 336 330 328 333 332 335 334 332 329 322 324 323 323 327 323 325 324 322 327 326 323 325 325 325 333 339 342 342 336 335 337 335 334 335 334 333 333 332 331 331 330 331 330 325 323 325 326 325 326 329 330 330 328 325 327 331 331 329 326 326 326 327 327 326 326 327 328 327 327 328 327 327 327 328 328 329 328 325 325 324 325 325 322 318 318 318 318 318 318 318 318 318 319 319 320 320
330 336 330 326 332 332 336 335 332 330 323 323 323 324 327 323 323 321 319 325 324 325 331 329 328 337 343 340 337 336 337 336 335 335 335 333 333 332 332 331 330 330 331 331 328 327 329 329 326 325 328 331 331 330 326 326 330 330 328 326 326 327 327 326 325 325 326 327 326 326 326 325 326 326 326 327 329 328 326 324 324 324 323 320 317 318 319 318 318 318 317 317 318 319 319 321 322
330 334 329 327 331 332 334 329 327 329 322 322 323 324 328 325 324 322 320 324 323 326 332 332 333 336 337 336 335 336 337 336 335 335 335 333 332 331 331 331 330 329 330 331 329 330 331 331 327 324 328 331 331 331 328 327 327 328 328 326 327 327 327 326 326 326 325 325 325 324 323 323 324 324 324 325 328 328 326 325 324 322 322 320 318 318 318 318 318 318 317 318 320 322 322 323 324
331 334 329 328 333 331 327 321 321 322 320 322 322 322 327 326 324 322 321 323 323 326 329 332 338 339 336 336 337 337 336 336 335 335 335 334 332 331 331 331 330 328 329 331 330 331 331 331 329 325 328 333 332 331 330 328 327 326 327 326 326 327 328 326 325 326 324 323 322 322 322 322 322 323 323 324 326 327 326 324 322 320 320 319 318 317 318 318 318 318 318 320 323 323 324 324 324
332 333 330 331 332 329 322 318 319 319 319 320 319 320 323 323 322 321 323 324 323 326 329 333 339 340 339 336 335 336 336 335 335 335 335 334 333 332 331 331 330 328 329 331 329 330 331 331 331 325 328 333 332 332 332 331 329 327 328 327 326 326 327 327 325 325 324 322 321 322 324 324 323 322 323 323 323 324 323 322 320 319 319 318 318 318 318 318 318 318 319 321 323 324 324 324 324
330 329 332 334 328 326 320 317 319 319 319 319 319 319 319 319 321 322 323 324 323 324 327 333 338 339 339 336 336 336 335 335 335 335 335 334 333 332 332 331 331 328 329 331 329 330 330 330 331 327 328 333 333 333 333 332 330 330 329 329 327 323 324 327 325 325 324 322 323 326 327 327 326 325 324 322 321 321 321 320 319 318 318 318 318 318 318 318 318 319 319 321 323 323 324 323 323
328 326 330 331 325 323 319 317 319 319 319 320 319 318 318 318 319 322 323 324 324 322 322 327 332 337 338 336 336 335 335 335 335 335 334 334 334 332 332 331 331 330 328 330 329 329 330 329 331 330 329 333 333 333 334 333 331 331 329 328 326 320 319 325 325 324 324 322 325 328 328 328 327 327 327 324 320 319 319 318 318 318 318 318 318 318 318 318 318 318 318 321 323 322 323 323 323
330 329 327 325 324 321 318 318 318 318 319 320 318 317 317 318 318 320 321 323 324 320 321 324 328 334 337 335 336 335 335 335 335 335 335 334 334 333 332 331 331 331 329 329 330 330 330 329 329 330 330 331 333 333 333 333 332 329 328 327 327 320 315 322 325 324 323 323 326 328 329 329 328 327 328 326 321 318 319 318 319 320 319 318 318 318 319 318 318 319 319 320 321 322 324 324 324
329 330 327 325 325 320 318 319 317 318 319 318 317 317 317 319 318 318 319 322 323 320 320 322 324 332 336 335 336 335 335 335 335 335 335 335 334 333 333 332 331 331 330 329 329 329 331 330 328 329 330 331 331 332 332 333 330 327 328 329 328 325 318 319 322 324 323 322 326 328 329 329 328 327 328 327 323 321 322 322 324 324 322 322 321 321 322 321 319 320 321 321 322 324 325 325 325
327 330 329 326 324 320 318 318 317 317 317 317 317 317 318 319 318 317 319 321 323 319 321 326 326 331 336 336 336 335 334 334 335 335 335 335 335 334 333 332 332 331 331 330 329 329 330 331 329 328 329 330 330 331 331 332 330 326 329 329 328 327 322 319 320 324 325 323 325 328 328 329 328 328 328 327 323 323 325 325 326 327 325 325 325 324 324 324 322 320 322 323 324 325 325 326 326
327 328 329 326 321 318 317 316 316 316 316 317 318 318 319 319 317 317 319 320 322 320 325 331 330 331 336 337 335 333 333 334 334 334 335 335 335 334 333 333 332 332 331 331 329 328 328 330 330 328 328 329 329 330 330 331 330 327 328 329 328 328 326 323 322 325 327 324 324 326 328 329 328 328 328 327 324 325 327 326 326 327 327 326 326 326 325 325 322 321 324 324 325 325 325 326 326
326 325 328 326 321 316 317 317 316 317 317 317 317 318 319 318 316 318 320 319 321 321 323 327 330 331 333 336 336 333 333 334 334 334 334 334 334 334 334 333 332 332 332 331 330 329 328 329 330 329 328 328 328 329 328 329 330 327 328 328 328 328 327 326 325 326 328 326 325 325 327 328 328 328 328 328 326 326 327 327 327 328 328 326 326 327 325 323 323 324 325 325 325 325 325 326 326
326 325 327 326 322 317 317 318 318 317 317 317 317 318 318 317 316 318 321 319 320 323 321 323 328 330 330 333 335 333 333 334 334 334 334 334 335 334 335 334 333 333 332 332 331 330 329 328 329 329 329 329 328 328 328 328 328 326 327 327 328 327 327 328 327 327 328 327 326 325 327 328 329 328 328 329 328 327 326 326 328 328 327 326 325 326 325 324 324 326 326 325 326 325 326 326 325
329 327 326 324 321 320 318 318 319 318 318 318 318 321 320 317 316 317 320 319 319 322 322 322 324 327 328 330 332 331 332 333 334 334 334 334 335 335 335 335 334 333 333 333 333 332 331 329 328 328 329 330 328 327 327 328 327 326 326 326 326 326 325 327 328 327 327 328 328 327 327 327 328 328 328 328 328 327 325 324 325 326 326 325 325 326 326 326 325 326 326 326 326 326 325 325 323
330 326 328 326 321 323 321 318 320 318 318 321 322 327 327 321 317 317 318 319 319 320 321 322 322 324 325 327 330 331 329 330 333 334 334 335 335 335 335 335 335 334 334 333 333 333 332 330 328 328 328 329 329 327 327 328 328 328 327 326 326 326 324 324 327 327 328 328 328 328 327 327 327 328 328 329 328 328 327 324 323 323 323 323 324 325 325 326 325 325 326 325 325 325 325 324 324
332 327 331 334 329 331 327 319 320 318 318 322 324 327 329 327 324 320 317 317 318 319 319 321 322 322 322 324 327 331 328 328 332 334 334 335 335 335 335 335 335 335 334 334 334 333 332 331 329 329 328 328 329 328 326 327 329 329 328 327 326 327 325 322 323 325 327 328 328 329 329 328 327 327 329 329 329 329 328 326 325 323 322 322 324 325 325 326 325 325 324 324 324 324 325 325 325
331 331 335 337 334 337 332 321 319 320 318 319 323 325 326 326 326 326 320 316 317 318 318 319 321 322 321 321 323 329 329 327 330 333 334 335 335 335 335 335 335 335 335 334 334 334 333 332 331 330 328 328 328 328 326 326 328 329 328 327 326 326 326 323 320 320 323 326 328 328 328 328 327 327 328 329 329 329 329 327 325 323 322 323 324 326 326 326 326 325 324 324 325 325 325 326 326
331 334 338 337 335 336 335 327 320 320 319 318 320 325 328 329 327 325 319 316 317 317 318 317 319 321 321 320 321 325 329 329 329 331 333 335 335 335 335 335 336 335 335 334 334 334 333 333 332 331 330 328 328 328 327 326 327 328 328 328 327 326 326 324 321 318 319 322 325 327 327 327 326 325 327 328 329 329 328 327 325 324 323 324 325 326 327 327 326 325 325 325 325 326 325 325 325
331 334 338 337 336 334 335 332 322 319 320 319 320 322 325 330 329 325 319 316 317 317 317 317 317 319 321 321 322 324 329 331 330 329 332 334 334 336 335 335 336 335 335 335 334 334 334 333 333 332 331 330 328 328 328 327 326 327 329 329 329 328 326 325 324 322 320 318 321 324 325 324 324 324 324 326 327 328 327 326 325 325 324 325 325 326 327 327 326 325 325 325 326 325 325 325 324
332 334 336 336 335 334 335 334 326 320 320 321 321 321 320 323 327 326 321 316 317 317 316 317 316 317 319 321 323 324 327 329 328 327 330 333 334 336 336 336 336 335 336 335 334 334 334 334 334 333 333 330 329 328 327 327 327 327 328 330 330 328 328 327 326 326 323 320 319 319 320 321 321 321 321 323 324 324 325 325 324 324 324 324 325 327 327 327 327 326 325 325 326 326 325 325 324
332 332 334 336 336 336 334 332 327 320 320 322 321 321 320 321 322 324 324 318 317 318 317 317 318 319 319 320 322 323 326 327 325 325 329 331 334 335 336 336 336 335 335 335 334 334 334 334 334 333 333 331 329 328 327 327 328 328 328 329 329 329 328 328 327 327 325 323 321 320 320 320 320 320 319 319 320 320 320 320 320 320 321 323 325 327 328 327 327 326 326 325 325 325 325 325 325
335 335 335 335 334 336 333 330 329 322 322 324 323 323 322 321 322 322 324 320 317 318 318 318 318 320 320 320 321 323 325 324 322 324 327 329 332 334 335 335 335 335 335 335 334 334 334 334 334 334 333 332 330 329 328 328 328 328 328 329 329 329 328 328 327 327 326 325 323 323 323 322 321 321 320 320 320 318 317 316 316 318 320 323 326 327 327 327 327 327 326 325 325 325 325 325 325
336 337 337 337 335 335 330 327 328 325 326 328 328 328 326 324 324 324 325 323 319 317 317 319 318 319 320 319 320 321 322 322 322 322 323 327 330 332 334 335 334 334 334 334 334 334 334 334 334 334 333 333 332 331 330 329 328 328 328 328 329 329 329 328 328 328 327 326 325 324 324 324 323 323 322 322 322 320 317 317 317 318 320 323 326 327 328 328 327 327 327 325 325 325 325 325 325
336 337 336 337 336 331 325 322 323 323 327 332 330 328 327 325 325 325 326 324 322 319 317 318 319 319 319 319 318 319 320 322 324 322 321 326 329 330 333 334 334 334 333 333 334 333 334 334 334 334 333 333 333 332 331 331 330 329 328 328 329 329 329 329 329 328 328 327 326 326 325 325 325 325 324 323 323 322 321 319 319 320 321 322 326 328 328 328 328 328 327 326 326 325 325 325 325
338 339 335 336 335 332 327 321 318 320 324 327 324 323 323 321 322 323 322 323 323 322 320 318 319 320 319 319 318 317 318 320 324 324 321 324 328 330 331 333 334 334 333 333 334 334 333 334 334 334 334 333 333 333 332 331 331 330 329 329 329 329 329 329 329 329 329 328 327 327 327 327 327 327 326 325 324 324 323 322 321 321 321 322 324 327 329 328 328 328 327 327 326 326 326 325 326
339 338 336 336 335 332 328 321 318 320 322 321 321 326 328 324 323 323 321 322 321 321 322 320 320 320 320 321 321 320 319 319 321 323 321 321 325 329 330 332 333 333 334 334 334 334 334 334 334 333 333 333 333 333 332 332 331 331 331 330 329 330 330 330 330 330 330 329 329 328 327 328 328 328 328 327 326 325 325 324 323 323 322 323 324 327 328 329 329 328 328 327 326 326 326 326 326
339 338 334 333 334 329 324 323 321 323 329 327 323 331 339 336 330 327 325 325 323 322 321 320 320 321 322 322 322 322 322 320 319 320 320 320 323 328 330 331 332 332 333 333 333 334 334 334 333 333 333 333 333 332 332 332 331 331 331 331 330 330 330 330 330 330 330 330 330 329 329 329 329 329 329 328 328 327 327 326 326 325 324 324 325 326 328 328 329 329 328 328 327 327 326 326 326
338 337 332 332 334 329 324 326 329 332 335 330 323 331 341 336 331 331 329 327 327 326 323 322 320 320 322 321 321 322 323 322 321 319 319 319 321 326 329 330 331 332 332 332 333 333 333 333 333 333 333 332 333 332 332 332 331 331 331 331 331 330 330 330 330 330 330 330 331 330 330 330 330 330 330 329 329 329 328 328 327 327 326 325 326 327 328 328 329 329 328 328 328 327 327 326 326
336 335 332 333 333 331 329 330 333 335 333 326 323 327 333 332 328 328 330 327 326 326 324 324 322 320 320 320 320 321 321 322 323 321 320 319 319 323 328 329 330 331 332 332 332 332 332 333 332 333 333 332 332 332 332 332 331 331 331 331 331 330 330 330 330 330 330 330 330 331 330 330 330 330 330 330 330 329 329 329 329 329 328 327 327 328 329 329 329 329 329 329 328 327 327 326 326
334 331 332 333 333 334 334 333 332 331 330 330 328 324 329 334 329 325 327 327 326 326 324 323 323 322 321 320 319 320 319 320 322 322 321 318 316 320 325 328 330 331 331 331 331 331 332 332 332 332 332 332 332 332 332 332 331 331 330 330 330 330 330 330 330 330 330 330 330 331 330 330 330 330 330 329 329 329 328 328 329 330 330 329 329 329 329 329 330 329 329 329 328 328 328 327 326
328 327 330 331 332 333 334 335 335 333 333 333 329 325 329 336 333 327 327 327 325 324 324 324 323 323 323 321 320 319 319 319 321 322 320 315 314 317 321 324 327 329 330 330 330 331 331 331 332 332 332 332 332 331 331 331 331 331 330 330 329 329 330 330 330 330 330 331 330 330 331 330 331 330 330 329 329 329 328 327 327 329 331 331 330 331 330 330 330 330 330 329 329 328 328 327 327
327 328 328 327 330 334 336 337 336 335 333 331 329 326 328 334 336 329 325 329 329 325 325 326 324 325 324 322 321 319 319 319 320 321 318 313 313 315 317 320 323 326 328 329 329 330 330 331 331 331 332 332 331 331 331 331 331 330 330 330 329 329 329 329 329 330 330 330 330 331 331 331 331 331 330 330 329 329 328 327 326 327 329 331 331 331 331 331 331 330 330 330 329 329 328 328 327
328 330 329 328 330 333 335 333 333 335 332 329 328 327 326 331 336 331 325 328 330 326 326 328 327 327 324 322 321 320 320 319 319 321 319 316 315 314 313 316 319 322 325 326 328 329 329 330 331 331 331 331 331 331 331 331 331 330 330 330 329 329 328 329 329 329 329 330 330 330 331 331 331 331 331 330 330 329 328 328 327 326 327 328 330 331 331 331 331 331 330 330 330 329 329 328 328
327 328 329 331 331 331 333 329 328 332 330 325 323 324 326 327 331 331 325 324 325 325 325 327 327 329 328 326 322 321 321 321 321 322 321 320 319 314 311 313 316 319 322 324 326 327 328 329 329 330 330 330 331 331 331 331 331 331 330 330 329 329 328 328 328 328 329 329 329 330 330 331 331 331 331 331 330 329 329 329 328 327 326 326 328 329 330 331 331 331 330 330 330 329 329 328 328
324 324 328 333 330 330 333 329 328 331 329 323 321 324 326 325 327 328 323 321 323 323 325 327 329 332 337 334 326 324 325 324 325 324 323 323 320 313 310 312 313 316 319 322 324 325 327 328 329 329 330 329 330 330 331 331 331 331 330 330 329 329 329 329 328 328 328 328 329 329 330 330 331 331 331 331 330 330 329 329 328 328 327 327 327 329 330 330 330 330 330 330 330 329 329 329 328
323 325 329 332 330 331 332 329 329 332 327 320 320 326 329 330 332 327 321 320 320 321 326 328 328 331 337 333 326 327 328 328 330 328 327 324 314 309 312 312 312 314 317 320 322 324 326 327 328 328 328 329 329 330 330 330 331 331 331 330 330 330 329 329 329 328 328 329 329 329 329 330 330 330 330 330 330 330 330 329 329 328 328 327 327 329 330 330 330 330 330 329 329 329 329 329 328
324 327 330 331 331 335 334 329 329 330 328 322 322 328 331 329 327 322 319 320 320 320 323 324 324 327 330 329 326 328 327 329 333 332 332 327 312 308 311 311 312 313 314 317 320 322 324 325 326 327 327 328 328 329 330 330 331 330 331 331 331 331 330 330 330 329 329 329 329 329 329 329 330 330 330 330 330 330 330 329 329 328 328 328 327 328 329 329 330 329 329 328 329 330 329 328 328
325 326 329 327 328 334 333 327 323 323 326 327 324 327 329 325 322 320 320 323 322 319 320 320 322 325 326 327 328 330 330 330 333 332 334 331 316 310 311 311 312 312 312 315 316 318 321 322 323 325 326 327 327 328 330 330 330 330 330 331 331 331 331 331 331 330 330 330 329 330 329 329 329 329 329 329 329 329 329 329 329 329 328 328 327 327 328 328 328 328 328 328 328 329 329 329 328
325 326 326 323 325 330 331 328 323 322 326 328 324 324 327 325 325 325 322 325 324 321 320 318 319 323 323 324 328 330 330 330 329 328 328 326 316 310 312 312 311 311 311 312 313 313 315 317 318 320 321 323 324 326 327 328 329 330 330 330 330 331 331 331 331 331 330 330 330 329 329 329 329 329 329 329 329 329 329 329 329 329 329 328 327 327 327 327 328 327 327 327 328 328 329 329 329
324 326 324 325 329 328 328 329 328 325 326 330 327 325 326 325 326 325 321 323 324 322 321 317 317 322 322 322 325 326 327 328 328 327 328 328 318 310 312 313 312 312 311 311 311 310 311 311 312 313 315 316 318 319 321 323 324 326 327 328 329 329 329 330 330 330 330 330 329 329 329 328 328 328 328 328 328 328 328 329 329 329 329 328 327 326 326 327 327 328 328 328 328 328 329 329 328
321 324 322 326 330 327 326 327 328 328 326 329 330 327 328 328 325 325 324 323 323 322 321 318 317 320 320 320 322 324 328 329 331 331 333 334 321 309 311 314 313 314 313 312 312 311 311 310 310 310 310 310 311 312 314 316 318 320 322 323 325 326 327 328 328 329 328 328 328 328 328 327 327 327 327 327 327 327 328 327 328 328 328 328 327 326 325 325 326 327 328 328 328 328 329 328 328
321 323 322 324 324 324 327 326 328 331 328 331 331 325 331 335 325 321 323 323 323 323 322 320 317 318 319 318 319 324 328 330 333 333 333 331 316 308 312 313 312 313 313 313 313 312 312 311 310 310 310 309 310 310 311 313 315 317 319 321 322 323 324 325 326 326 326 326 326 326 326 326 326 326 326 327 327 327 327 327 327 327 327 327 326 326 325 324 325 325 327 327 328 328 328 328 328
321 323 323 323 321 322 327 326 327 328 326 332 332 324 333 342 326 317 319 320 321 322 321 321 319 318 318 317 319 323 326 331 334 331 331 329 314 307 311 312 312 313 313 313 313 312 312 312 311 310 310 310 310 310 310 311 313 315 317 318 320 321 321 322 322 323 323 323 324 324 324 325 325 325 325 326 326 327 327 327 327 327 327 327 326 325 324 324 325 325 326 327 327 327 328 327 327
Wind_Speed
12 12 13 13 14 13 8 3 2 3 2 2 2 1 1 1 3 4 4 4 2 1 2 3 3 4 6 7 9 8 5 2 2 3 2 7 17 23 23 22 22 20 20 19 19 18 17 17 16 15 14 13 14 14 16 16 15 15 14 14 15 15 14 15 15 16 15 15 16 16 16 16 16 16 17 18 18 17 17 18 18 18 18 18 17 18 18 18 18 18 19 19 20 20 21 22 23
11 12 12 13 10 5 3 2 3 3 4 3 2 2 0 2 5 6 6 4 2 1 3 5 6 8 10 10 8 7 6 5 2 2 4 19 25 24 25 22 21 20 20 20 20 19 18 18 16 14 13 12 12 14 16 15 15 15 14 13 14 14 14 14 14 14 15 15 15 15 15 15 15 16 17 17 17 16 16 17 18 17 17 17 17 16 16 17 17 17 18 18 18 19 19 20 21
10 11 13 13 6 1 1 3 3 1 4 2 2 2 3 6 5 6 7 6 4 4 5 5 7 6 7 7 4 5 2 3 4 4 7 21 21 21 26 21 20 19 19 21 20 19 19 17 15 13 12 13 13 13 14 14 15 15 14 13 13 13 13 14 13 14 15 15 16 15 15 15 16 15 16 16 17 17 15 16 18 17 17 17 16 15 15 16 16 16 17 17 17 17 18 19 19
10 10 13 10 4 2 3 3 2 3 3 3 1 2 4 6 6 6 6 5 4 5 4 4 4 2 6 9 5 5 4 0 2 4 7 17 19 24 25 20 19 19 20 19 19 19 18 17 14 14 14 14 14 13 12 13 14 14 14 13 12 13 13 13 13 14 14 15 15 16 15 15 16 15 15 15 16 17 17 16 17 17 16 15 15 15 14 15 16 16 16 16 16 16 17 18 19
9 10 10 3 2 2 2 2 1 4 1 3 3 2 4 6 7 6 4 4 4 5 3 3 2 1 6 5 2 3 4 3 2 5 9 17 24 26 23 19 19 19 20 18 18 18 17 16 14 15 15 15 13 12 12 13 15 13 13 13 13 13 13 13 14 14 14 14 15 15 15 15 15 15 15 15 15 16 17 16 15 15 15 15 15 15 14 14 15 16 15 15 15 16 17 18 19
9 11 6 1 1 1 2 2 2 1 2 3 5 3 6 6 6 6 4 5 4 5 4 4 3 4 5 2 3 3 5 6 6 8 14 22 25 23 21 20 21 20 19 18 17 17 17 16 15 15 16 16 13 11 12 13 15 13 13 13 12 13 13 14 13 14 15 15 15 15 15 15 15 15 14 15 15 15 16 15 14 14 15 15 15 15 15 14 14 15 14 14 15 16 17 18 19
9 8 3 2 2 1 2 2 1 2 2 2 6 6 7 7 6 7 5 4 5 4 4 3 5 6 3 1 4 4 5 12 11 13 19 24 24 21 20 20 22 22 19 18 17 17 18 16 15 15 16 16 13 12 12 13 14 13 13 13 12 12 13 13 12 14 15 15 15 15 15 15 15 15 14 15 15 15 15 15 14 14 14 15 15 15 14 13 14 14 14 15 16 17 18 17 18
5 2 1 3 2 2 2 2 3 3 1 2 6 7 9 8 6 6 4 3 1 1 2 2 5 5 3 3 3 4 8 16 16 20 24 24 23 20 20 20 22 23 20 18 17 18 18 16 16 16 16 16 13 12 12 12 13 12 12 13 12 12 13 11 12 13 13 14 15 15 14 14 14 14 13 13 14 15 14 14 14 13 13 15 14 14 13 13 14 14 15 15 16 17 17 17 17
2 1 2 3 1 2 2 1 2 2 2 3 5 7 9 9 7 6 4 3 2 2 1 1 5 5 2 5 4 3 9 18 23 25 26 24 22 19 20 20 21 23 21 18 16 17 18 16 16 15 14 14 13 12 11 12 11 12 12 12 11 11 12 12 12 12 12 15 15 14 13 13 13 14 13 13 14 14 13 13 13 13 14 14 13 13 12 12 13 14 15 15 16 16 16 16 16
2 1 1 2 1 3 4 2 2 1 2 3 5 7 8 7 7 7 6 4 4 3 1 3 6 6 5 5 3 3 11 21 27 26 24 24 21 19 21 20 19 21 20 18 16 17 18 17 16 15 15 15 14 13 12 12 12 12 13 12 11 11 12 12 13 12 12 15 15 14 13 13 12 13 13 13 13 13 12 12 12 12 13 13 12 12 12 12 13 14 15 15 15 15 15 15 15
2 2 1 2 2 1 4 2 3 3 3 3 3 4 6 7 7 6 7 5 4 5 1 3 6 6 6 4 0 6 17 22 26 25 23 23 18 18 21 20 18 18 18 18 16 17 19 19 17 16 16 16 16 15 13 12 13 13 14 13 12 12 12 13 13 13 13 13 14 14 14 13 13 12 12 12 12 12 11 11 11 11 11 11 11 11 11 12 13 13 14 14 15 15 15 15 15
1 3 2 1 0 2 3 1 3 3 3 3 2 1 3 6 6 6 8 6 5 5 2 1 4 5 6 2 1 9 19 20 23 25 24 21 15 18 21 19 17 16 16 16 16 17 19 20 18 17 16 17 17 16 14 13 14 14 15 14 13 13 12 13 13 13 13 13 13 14 13 14 14 13 12 12 11 10 10 10 10 10 10 10 10 10 11 12 13 13 13 14 14 14 14 15 15
1 0 4 1 3 2 2 1 2 3 3 1 2 2 4 5 3 6 8 6 6 6 3 5 3 5 5 1 1 7 14 19 23 25 25 19 15 20 20 17 16 14 14 14 15 18 20 19 17 17 18 18 17 16 14 14 14 15 15 14 13 12 12 13 12 13 13 13 13 14 13 13 14 14 12 11 10 10 10 10 10 10 10 10 9 10 11 12 12 12 13 13 13 13 14 14 15
1 1 4 2 1 2 3 0 1 4 1 3 1 2 3 2 2 4 8 7 3 5 3 3 5 7 4 1 1 3 11 21 23 24 23 18 18 21 18 15 14 13 12 12 15 19 19 18 17 18 19 18 17 16 15 14 14 15 15 14 13 12 12 12 13 13 13 13 13 13 13 13 14 15 13 11 10 10 10 10 11 10 10 10 10 11 11 12 12 12 12 12 12 12 12 13 15
2 1 4 1 3 3 2 3 3 5 2 3 1 1 3 1 2 6 6 7 1 3 2 2 4 4 4 5 4 5 15 24 24 23 20 18 21 19 16 16 13 12 12 11 14 19 19 17 17 17 18 18 17 16 15 15 15 15 15 13 11 12 14 13 13 14 12 12 12 11 12 13 14 15 14 12 10 10 10 10 10 10 10 10 11 12 12 11 11 11 11 11 11 11 11 12 12
2 2 3 1 2 2 3 3 3 5 2 4 2 2 5 3 2 5 1 6 3 1 3 2 1 3 5 6 8 14 23 27 25 22 17 18 22 19 18 16 14 13 13 12 12 17 19 17 17 17 18 18 16 16 15 16 15 15 14 11 10 13 15 13 12 13 12 11 11 11 11 12 14 15 15 13 11 10 10 10 10 10 10 10 12 12 11 11 10 10 10 10 10 11 11 12 12
2 3 1 2 2 1 3 3 2 4 3 3 3 1 6 1 3 2 1 5 5 3 5 2 3 4 2 6 17 26 29 29 26 22 17 20 23 21 19 17 16 16 16 13 12 17 18 15 17 18 19 18 17 16 15 16 15 15 13 10 10 12 13 12 12 13 12 11 11 11 11 12 14 15 15 14 13 12 10 10 9 9 10 11 12 11 10 10 9 9 9 9 10 11 12 12 11
3 3 3 3 3 3 3 3 2 4 4 4 4 3 7 3 0 1 2 5 4 6 5 3 6 7 7 15 26 31 31 30 27 24 19 20 22 21 21 19 19 19 19 16 14 17 18 15 16 18 19 18 18 17 16 17 16 15 13 12 11 12 12 11 13 13 12 11 11 11 12 13 13 14 14 14 14 13 11 9 8 7 8 10 10 10 9 9 9 8 8 9 10 10 10 10 9
2 3 3 4 4 3 3 1 2 3 5 5 4 4 5 5 4 2 2 2 4 6 3 4 7 6 9 18 26 29 30 29 27 26 22 20 22 21 21 21 20 21 21 19 19 19 19 17 15 17 19 18 19 18 17 17 17 17 15 14 12 13 12 12 13 13 13 11 11 12 12 12 13 13 14 14 15 14 12 9 7 6 7 8 9 10 9 8 8 8 9 9 9 8 8 7 6
2 3 2 5 3 2 5 2 3 4 6 6 3 3 4 4 4 3 4 5 5 6 4 4 6 7 8 13 21 26 26 26 25 25 23 22 22 22 23 22 22 24 22 21 21 20 21 20 17 18 19 19 21 20 18 18 18 17 17 15 14 14 14 13 13 14 13 12 13 14 13 12 11 12 12 13 14 14 12 10 8 8 8 8 8 9 8 7 7 8 8 8 7 6 6 5 3
1 3 4 5 1 2 4 5 2 4 6 7 4 4 4 2 3 3 5 5 3 6 8 9 11 13 11 11 18 23 23 23 23 23 22 21 20 21 23 23 22 23 22 21 22 23 22 22 19 18 19 20 22 21 19 19 19 19 18 17 15 15 16 16 15 15 15 14 15 14 13 12 10 10 9 10 13 13 12 11 9 9 9 8 8 8 8 7 6 6 6 6 5 5 4 3 2
2 4 6 5 2 2 3 4 4 2 4 6 5 5 2 2 2 3 7 5 5 5 8 10 13 16 16 15 18 19 19 20 21 21 21 21 21 21 23 24 22 22 23 23 24 24 24 23 22 20 20 22 23 22 20 19 20 20 18 17 16 16 19 18 17 17 17 16 16 15 14 13 12 10 8 8 11 12 11 10 9 8 8 7 7 7 7 7 6 5 5 5 4 3 3 2 3
3 4 5 6 3 4 3 1 3 3 4 5 4 2 2 3 1 3 6 6 6 6 6 9 14 19 21 20 18 16 16 18 20 23 24 24 24 24 26 26 25 24 26 27 25 25 25 25 25 22 22 23 23 22 20 19 19 20 18 17 16 15 19 21 20 19 18 18 18 17 14 14 16 14 11 10 10 12 11 9 9 8 8 7 6 6 7 7 5 5 4 4 3 3 3 3 3
5 4 4 6 4 5 5 4 2 2 4 3 3 2 2 4 2 1 4 7 7 6 4 9 16 21 21 18 16 17 18 21 24 27 28 28 29 27 27 28 27 25 26 28 27 27 27 26 27 26 25 25 24 22 21 20 18 19 19 18 17 15 17 22 22 20 19 20 20 18 14 15 19 16 13 11 12 13 11 9 8 8 8 7 5 5 6 5 5 5 3 4 4 3 3 2 2
7 6 4 4 3 5 5 5 3 2 3 2 4 2 2 5 4 1 5 8 6 6 5 9 14 16 16 15 15 16 17 21 23 25 26 26 28 25 24 27 27 26 27 29 28 29 29 27 27 28 28 28 27 24 23 21 19 20 21 21 20 16 17 20 22 21 19 22 22 18 16 18 20 18 15 13 13 14 11 10 9 8 8 7 6 6 6 4 6 6 4 4 5 3 3 4 4
7 7 5 3 2 6 5 5 4 3 3 3 4 2 6 4 3 2 7 8 6 6 7 10 12 13 13 12 14 15 14 18 22 23 25 25 26 24 23 26 29 28 28 28 28 29 30 29 29 29 30 30 29 28 26 24 22 23 23 22 21 19 18 18 21 22 20 22 23 21 18 18 19 19 17 15 16 15 12 12 11 10 10 9 8 9 8 7 8 7 5 5 5 4 5 5 5
5 7 5 6 4 6 6 5 5 3 2 4 5 5 6 3 2 4 7 7 6 7 7 10 12 12 13 11 12 15 15 19 24 24 23 21 23 26 25 26 30 30 28 28 29 29 29 31 30 30 31 31 31 30 29 28 27 27 25 23 23 22 20 18 21 23 21 21 22 23 22 19 19 20 19 17 17 18 16 15 14 13 13 12 12 11 10 9 9 8 6 6 7 7 8 7 7
5 6 5 6 5 5 6 6 6 3 2 5 6 3 4 2 3 6 6 5 7 9 8 9 11 11 12 12 11 13 15 20 24 22 22 23 25 29 30 29 31 31 30 30 30 29 29 31 32 31 31 31 31 31 30 30 30 29 29 27 26 26 24 21 22 24 23 22 22 24 25 23 20 21 22 20 19 20 20 19 18 18 17 15 14 13 11 9 9 9 8 9 10 9 9 9 10
3 5 4 6 4 4 6 6 5 5 3 5 5 3 5 5 6 7 7 5 7 9 8 8 9 9 9 10 9 10 14 19 21 21 25 29 29 32 34 34 33 32 32 32 31 31 31 31 32 32 32 31 32 32 31 31 30 29 30 30 28 27 27 26 25 25 25 24 24 24 26 26 24 23 23 22 21 20 21 21 21 21 19 16 15 14 12 10 11 12 11 11 12 11 11 10 8
3 4 4 4 3 4 6 5 5 7 4 6 6 2 7 8 9 10 9 7 8 8 8 8 8 8 8 8 8 9 13 17 21 25 29 29 30 32 34 35 34 32 32 33 32 32 32 32 32 32 33 33 32 33 32 32 30 29 29 29 29 28 28 29 29 28 27 27 27 26 26 27 28 26 24 23 22 21 20 22 21 20 19 18 16 16 15 14 14 14 14 13 13 12 11 9 7
4 3 2 3 3 4 6 6 8 6 4 6 8 4 8 6 9 11 10 8 9 9 9 8 7 7 7 7 8 8 11 18 24 28 29 29 30 31 32 33 34 33 31 33 33 32 32 32 32 32 33 34 33 33 33 33 32 31 30 30 30 29 28 29 31 31 30 29 29 28 28 27 28 28 26 23 23 22 21 22 21 19 18 19 18 17 17 17 16 15 14 14 13 12 11 10 10
3 3 1 3 4 3 5 7 11 9 3 5 8 4 8 6 9 11 7 9 10 10 8 8 8 8 8 7 8 8 9 17 23 26 28 30 31 31 32 31 33 35 33 32 34 34 33 32 32 32 33 34 34 34 34 34 34 32 31 30 30 31 29 29 30 31 31 31 30 30 30 28 27 28 28 25 24 24 23 22 21 19 18 19 19 19 19 19 17 15 14 14 13 13 13 12 12
3 4 3 4 4 3 4 4 10 11 5 4 7 5 5 5 8 9 6 10 11 10 9 9 9 9 9 7 7 8 8 11 15 21 28 30 31 32 33 33 33 36 35 33 32 35 35 34 34 33 34 35 34 34 34 34 34 33 31 30 29 30 31 30 29 30 32 32 32 31 30 29 28 28 29 28 26 26 25 24 22 20 19 20 21 20 21 21 19 16 15 15 14 14 14 14 14
4 3 3 4 6 5 2 3 5 9 8 7 9 8 8 6 6 6 4 9 10 10 10 10 9 8 8 8 8 8 8 9 10 19 29 31 32 33 34 34 34 35 36 35 33 34 36 35 35 35 34 35 35 35 34 33 33 32 30 29 29 30 31 31 29 29 31 33 33 32 31 30 29 28 29 30 30 29 28 26 24 22 22 22 22 22 23 22 20 18 16 16 16 15 15 16 16
6 5 4 4 5 6 6 4 4 9 9 8 9 9 12 11 7 6 5 7 9 10 10 9 8 8 8 8 8 8 9 9 12 20 29 31 32 33 33 35 35 35 36 37 35 34 35 36 36 36 35 35 35 35 34 32 31 31 31 29 29 30 31 31 31 30 30 32 33 33 32 32 31 31 30 30 31 32 31 29 27 25 24 24 23 24 25 24 22 20 18 17 18 18 17 16 15
9 8 8 6 5 5 7 5 6 12 9 8 11 10 12 12 9 8 7 6 8 9 8 7 8 7 7 7 8 9 10 10 15 23 27 28 30 32 33 34 35 35 35 37 37 35 35 36 36 36 36 35 35 35 34 33 30 31 31 30 30 32 32 32 32 31 31 31 32 32 32 32 31 31 31 30 31 32 31 31 28 27 27 26 26 27 28 26 24 22 21 20 20 19 18 16 15
9 8 7 6 5 4 5 5 7 12 9 9 12 10 11 12 10 9 8 8 9 9 9 8 8 8 8 8 9 10 11 11 18 25 26 28 30 32 32 33 34 34 35 36 37 37 37 37 37 38 37 36 36 36 36 35 34 32 32 33 34 34 33 33 33 33 32 32 32 32 32 32 31 31 30 31 31 32 32 31 29 28 28 28 28 29 29 28 26 24 22 21 22 21 20 18 16
6 8 5 4 6 5 4 5 7 9 7 7 8 9 12 11 9 9 8 9 10 11 11 11 11 11 10 10 10 11 10 9 13 17 21 26 29 31 32 32 34 35 36 38 39 39 38 37 38 39 38 38 38 38 37 37 37 36 35 35 35 34 34 35 35 34 33 33 32 33 33 33 33 32 31 31 32 32 33 33 32 31 30 30 30 31 31 30 29 27 25 24 24 24 22 20 19
5 6 5 4 5 3 3 3 1 5 6 4 4 7 10 10 9 10 9 9 10 11 13 14 13 13 11 11 11 10 9 8 9 11 16 24 29 31 32 32 35 36 37 38 38 39 38 38 39 39 39 40 40 40 39 38 38 37 35 33 32 32 32 33 34 33 33 33 33 33 34 34 34 34 33 33 33 33 34 35 35 34 33 33 33 33 33 33 31 30 28 27 25 25 24 22 21
4 4 4 4 4 4 3 3 2 1 3 1 1 4 6 6 8 10 10 9 9 10 14 14 13 14 14 13 11 10 10 10 10 10 12 19 25 29 30 32 35 36 35 36 38 39 40 40 40 40 40 41 41 41 41 39 36 35 35 33 31 29 28 29 29 31 32 33 34 35 35 35 35 35 35 34 35 35 35 36 37 36 36 36 36 36 36 36 35 33 32 30 28 26 25 24 24
6 5 5 4 4 5 4 2 1 3 3 1 3 5 6 6 9 11 9 8 10 10 10 12 12 12 11 11 10 9 10 11 11 12 11 14 20 26 31 34 35 35 35 37 39 40 41 42 42 40 40 40 41 41 41 38 35 33 32 31 29 28 28 28 28 31 33 34 37 38 38 37 36 36 36 36 36 36 36 36 37 38 38 38 38 38 38 38 37 36 34 33 32 30 28 27 25
7 7 8 7 3 4 5 6 5 3 4 3 3 2 7 4 7 11 6 6 10 9 10 13 11 9 9 9 10 10 10 10 11 13 13 14 20 26 30 33 33 34 37 39 41 41 41 41 41 40 39 40 41 41 40 38 36 34 32 31 31 29 29 32 35 37 37 37 39 39 38 38 38 38 37 37 37 36 37 37 37 38 38 39 40 40 39 38 38 37 36 35 34 33 30 27 26
6 6 9 7 4 7 8 7 5 2 4 4 3 4 6 5 5 8 5 5 8 8 10 13 11 9 9 9 10 11 11 11 10 11 12 14 19 23 26 30 33 35 39 40 40 40 40 39 40 41 41 40 40 40 40 39 37 36 35 36 35 34 33 36 39 38 36 36 37 36 36 37 38 38 37 37 37 36 36 36 36 37 38 39 39 40 39 39 38 38 37 37 36 35 33 29 27
4 5 10 9 6 8 8 7 4 3 2 4 1 3 4 7 5 5 6 7 9 10 11 11 11 12 13 12 12 13 14 13 12 11 11 13 18 22 26 30 34 37 39 38 37 38 40 39 39 40 40 40 39 39 40 41 40 39 38 37 36 37 38 37 34 33 33 33 34 35 35 36 37 38 38 38 37 37 37 36 35 36 37 38 38 39 40 39 38 37 37 37 37 36 35 33 30
4 4 8 8 6 7 6 6 3 0 2 4 3 3 2 7 6 4 4 7 12 14 13 11 11 12 13 14 15 15 15 14 12 12 12 13 19 24 28 32 35 38 38 37 38 40 40 40 39 38 39 39 38 38 39 41 42 40 39 38 37 39 39 35 30 30 32 32 32 34 35 36 37 38 39 39 39 39 39 38 37 36 37 38 38 39 39 38 38 38 37 38 38 37 37 35 33
4 5 7 4 4 5 5 5 3 3 1 6 5 4 3 6 6 5 2 6 12 14 10 9 11 12 13 14 15 15 13 10 10 11 11 15 21 26 28 30 34 37 37 36 38 38 38 38 37 37 39 39 38 37 38 40 41 40 39 39 40 39 37 33 30 30 30 31 33 34 34 36 37 38 39 39 39 39 39 39 39 38 38 38 39 40 39 39 38 38 39 39 39 38 38 37 35
5 7 8 7 5 5 4 3 5 2 5 6 8 7 4 5 6 5 5 6 10 9 7 7 9 11 12 13 13 13 11 9 9 9 10 14 21 25 27 29 31 33 34 34 34 34 35 35 35 37 38 38 37 37 38 39 40 40 41 41 41 40 35 32 31 32 31 31 33 34 35 36 37 38 39 39 40 40 39 39 39 39 39 38 39 40 40 40 39 39 38 39 39 39 38 38 37
8 6 6 5 3 5 4 4 3 3 6 3 8 9 7 7 7 5 8 9 8 8 7 8 9 10 11 10 11 11 10 9 9 9 9 11 14 17 20 25 27 29 30 31 33 33 33 34 35 36 37 37 37 38 39 39 39 40 42 42 41 40 35 33 33 33 32 32 33 33 33 35 36 37 38 39 40 39 38 38 37 38 39 39 40 40 40 40 39 38 37 38 38 39 39 37 37
8 6 7 6 1 1 1 1 1 5 5 2 5 6 6 9 6 6 13 12 10 9 8 9 11 10 9 9 10 9 8 8 8 8 8 9 9 12 16 21 24 26 28 30 32 32 33 34 35 36 37 38 37 37 39 39 40 41 43 42 41 39 35 34 34 33 32 32 33 33 32 34 35 35 37 38 38 37 37 37 37 38 39 40 40 40 40 39 38 37 36 36 37 38 38 38 38
9 9 9 8 4 3 5 3 1 4 5 2 4 4 3 7 4 10 20 19 12 9 9 9 9 8 7 8 8 7 7 8 8 8 8 8 9 12 17 21 23 26 29 31 32 33 34 34 35 36 38 38 37 37 38 39 41 42 41 40 39 36 34 35 35 35 34 33 34 34 34 35 35 36 37 38 37 36 36 38 38 38 39 38 38 39 39 39 38 38 35 34 35 37 38 38 39
7 6 7 7 6 5 6 4 3 4 4 3 2 3 5 4 3 10 17 16 10 7 8 8 7 6 5 4 3 5 6 7 6 7 8 8 9 13 17 19 22 25 28 30 32 33 33 34 35 37 38 38 37 37 37 38 40 39 37 37 36 35 35 36 37 37 36 35 34 35 35 36 36 36 37 36 36 35 35 37 37 37 37 36 36 36 37 37 36 37 37 36 35 35 37 38 39
3 3 6 6 5 5 3 3 5 4 1 2 3 4 4 5 6 9 9 11 8 7 8 7 8 6 4 5 4 5 6 6 6 6 7 7 10 14 16 17 21 23 25 28 30 32 33 34 35 36 37 35 34 35 35 36 36 35 35 35 35 35 36 36 37 37 36 35 34 34 35 36 36 36 36 35 35 34 35 36 36 37 35 34 35 35 35 36 34 34 35 37 37 36 36 38 39
2 4 7 5 4 6 2 2 0 4 2 3 3 5 5 3 8 10 10 12 10 7 7 8 9 7 6 6 6 7 7 7 7 6 7 7 8 12 16 19 21 23 25 28 30 31 33 33 33 33 32 30 29 30 32 32 32 33 34 35 35 35 35 36 36 35 34 33 32 32 32 33 34 34 34 34 34 35 36 36 35 35 35 34 34 34 35 35 36 36 36 37 38 36 36 37 38
6 7 8 4 4 3 3 2 1 2 3 4 3 7 5 3 6 6 8 12 12 8 7 7 7 6 7 8 7 8 8 7 7 6 6 6 7 12 17 20 23 25 27 28 29 29 29 29 29 29 29 28 28 29 30 31 32 33 34 34 35 35 34 34 33 32 31 31 32 32 31 30 30 30 31 31 32 33 34 35 34 34 34 33 32 32 33 34 35 36 37 37 38 37 36 37 38
6 6 7 6 3 4 4 3 3 4 4 4 4 6 5 6 6 2 6 12 12 10 7 6 7 7 8 9 8 8 7 6 6 6 6 6 8 13 17 19 21 21 23 24 24 24 24 25 26 27 28 29 29 29 30 31 32 32 33 33 32 32 31 31 31 30 29 30 30 30 30 30 29 28 28 28 28 29 31 31 32 32 32 31 30 30 30 32 34 36 36 35 36 37 37 37 37
3 5 6 5 3 4 5 4 3 4 4 4 4 3 4 8 7 6 9 11 11 12 9 8 9 9 9 9 8 7 7 7 6 6 7 7 9 13 16 17 17 17 18 18 19 20 22 23 24 25 25 26 27 27 28 29 29 30 30 30 29 29 28 28 28 27 27 27 27 26 27 28 28 27 27 26 26 26 27 27 28 29 30 30 29 28 28 29 30 33 36 36 36 36 36 36 35
7 9 9 7 4 2 2 3 3 4 4 4 4 5 6 6 5 11 14 11 12 13 11 9 9 9 11 9 8 7 7 7 7 6 7 7 8 11 13 14 14 15 16 17 19 20 21 22 23 24 24 24 25 24 25 26 26 26 26 26 26 26 26 25 25 25 25 25 25 25 25 25 26 26 25 25 25 25 26 27 27 27 28 28 27 26 27 28 28 31 34 36 38 38 37 37 36
10 9 10 10 7 4 4 5 4 4 4 4 5 6 8 5 4 9 12 10 10 11 10 9 8 9 10 9 8 8 7 7 7 7 7 6 7 9 12 13 14 15 16 18 19 19 20 21 22 22 22 23 22 22 22 22 23 23 24 24 24 24 24 24 24 24 24 24 23 23 22 23 23 24 23 23 22 23 25 26 27 28 28 28 27 25 26 28 29 31 32 33 35 37 39 39 37
Wind_Direction
325 325 331 340 336 329 330 69 64 322 77 26 281 111 310 172 110 98 72 55 46 352 66 90 45 53 87 109 123 103 58 353 197 147 150 132 133 151 156 151 147 141 141 140 140 138 135 132 130 129 121 114 111 110 109 111 108 104 104 103 103 102 99 99 98 100 102 102 103 102 99 100 100 98 99 101 99 98 97 95 96 95 94 93 92 91 89 90 89 87 85 84 84 83 82 81 85
331 328 339 346 338 340 315 88 77 331 47 26 296 114 122 23 54 91 101 91 115 164 79 78 55 65 101 125 128 90 41 359 83 107 93 121 128 141 149 152 146 141 141 142 143 139 136 134 134 130 120 115 113 111 111 114 113 109 108 104 106 102 100 102 105 106 104 106 107 104 103 102 100 101 101 104 107 105 101 100 100 97 94 92 90 89 88 88 87 86 84 84 83 83 82 83 88
335 334 343 352 352 69 5 39 87 22 62 89 283 315 75 71 82 105 110 114 133 108 72 60 53 68 97 95 66 63 74 344 61 69 101 126 131 141 147 148 145 143 142 143 145 142 139 137 135 129 121 119 114 113 114 118 116 112 111 109 111 106 104 107 109 107 104 108 109 106 103 101 100 101 102 106 109 107 105 103 101 98 95 93 90 89 88 87 87 86 85 84 84 83 83 86 91
334 337 336 353 15 38 44 45 136 120 101 155 318 336 95 107 117 106 110 118 116 90 67 61 52 15 76 89 88 74 122 35 69 96 115 137 139 143 145 141 141 143 143 145 145 143 140 138 134 130 127 123 119 118 119 122 118 115 114 112 112 111 111 111 110 110 109 111 112 110 103 101 103 99 100 106 109 106 104 100 95 94 93 93 92 90 88 88 89 88 87 85 84 84 86 90 95
323 335 326 356 52 6 71 62 79 88 110 184 99 73 126 122 117 102 94 83 72 79 71 92 72 357 65 79 117 101 131 105 139 129 114 137 141 143 144 141 144 145 145 145 146 145 140 138 134 134 132 127 123 121 124 127 122 118 118 115 113 115 114 114 117 117 115 114 114 114 106 103 105 102 100 107 110 105 102 99 96 93 92 92 92 91 90 89 89 88 86 84 84 86 89 94 99
324 339 332 131 130 148 99 35 353 23 262 179 117 142 142 122 119 110 76 47 33 64 70 80 93 86 72 25 62 101 169 139 157 146 125 138 142 142 143 144 149 150 148 148 149 147 142 139 135 137 136 130 127 122 126 132 128 124 123 120 118 119 116 119 122 117 116 116 117 116 112 108 108 107 105 109 111 106 104 102 100 96 95 95 94 94 92 91 89 87 85 84 86 88 92 95 99
339 346 358 70 346 46 100 102 250 253 290 110 123 150 138 126 126 108 89 56 5 24 50 62 110 97 73 116 68 37 144 148 155 148 138 140 143 142 141 145 152 154 152 150 150 149 146 142 138 140 139 135 134 129 130 136 136 133 131 125 123 126 124 124 123 121 120 118 119 120 115 111 111 111 108 110 111 109 109 105 105 105 104 104 101 99 97 95 90 86 85 86 89 91 93 95 99
346 337 38 72 3 358 80 153 216 198 106 69 120 144 138 136 130 112 126 115 25 38 35 26 94 88 29 69 91 25 105 146 154 146 144 142 143 144 145 147 150 153 153 152 153 152 149 147 144 142 142 141 139 136 137 141 141 138 132 127 128 133 133 129 126 129 125 120 125 127 118 112 114 116 112 110 110 110 108 106 107 107 108 108 105 103 101 96 90 87 86 87 91 93 94 96 99
12 151 15 71 23 345 340 293 236 214 151 114 106 133 140 138 129 122 130 105 127 132 146 158 82 96 95 57 94 58 91 138 146 144 146 146 145 146 150 153 151 150 152 155 158 158 154 154 152 148 146 144 143 141 141 142 141 140 132 130 135 137 136 133 130 130 125 122 125 127 119 115 116 118 119 116 113 112 109 109 109 107 109 108 106 107 103 96 91 89 88 89 90 92 94 96 100
34 143 46 69 44 348 312 297 192 203 164 145 112 132 142 139 133 127 126 118 129 118 175 141 86 112 129 83 99 110 114 135 140 141 147 148 146 149 155 161 161 154 154 159 163 164 160 160 158 155 153 149 150 146 146 146 142 143 137 134 135 135 134 132 130 127 122 121 122 122 120 119 116 118 121 121 118 116 113 112 111 111 112 111 111 110 105 99 95 92 89 88 89 90 93 95 100
25 333 84 78 34 331 281 276 180 151 127 118 88 134 142 134 125 121 120 111 108 116 147 65 96 128 111 98 240 139 135 139 140 142 147 145 145 155 157 163 169 163 160 162 165 168 164 163 162 161 159 158 158 153 154 152 148 148 145 144 137 131 131 129 129 129 127 125 127 127 127 127 122 120 121 124 125 123 120 118 116 116 116 117 117 115 111 105 99 95 92 89 88 87 89 91 96
49 330 55 102 190 226 235 204 199 148 92 92 97 192 128 109 109 130 129 121 125 119 163 124 124 132 99 98 238 146 141 142 145 146 146 143 147 157 158 162 166 167 167 166 168 170 167 165 165 166 165 164 165 163 162 155 156 155 151 152 147 143 139 135 133 136 139 137 138 139 141 141 133 127 124 126 128 127 127 124 122 118 119 120 118 117 114 108 101 97 93 90 88 86 87 89 94
116 326 64 256 199 226 279 57 200 113 37 12 170 202 110 96 135 161 142 130 140 127 206 210 122 86 99 105 176 150 146 146 149 150 147 143 150 152 155 160 162 168 171 172 173 170 168 168 169 169 167 166 167 169 167 162 163 160 155 156 154 155 156 151 143 143 151 150 149 151 152 151 142 136 135 137 134 131 133 131 127 123 125 125 121 118 113 109 104 100 95 92 90 88 89 90 96
193 167 95 255 293 344 283 223 118 92 352 279 273 238 111 110 181 142 126 110 121 147 192 209 113 88 104 119 175 189 157 151 151 154 150 143 149 149 152 157 160 168 171 174 173 171 172 173 173 171 168 167 169 172 171 170 169 166 162 161 161 161 165 166 158 154 158 157 157 156 155 155 151 147 145 147 142 136 138 139 138 134 135 135 128 123 117 113 108 103 99 96 94 93 94 95 100
181 169 95 259 333 350 268 217 156 117 191 239 272 206 94 68 108 80 113 121 88 205 128 83 106 105 152 166 200 205 162 155 154 157 152 147 153 152 154 156 158 164 169 170 167 172 176 178 178 174 172 169 170 173 174 174 174 173 168 168 170 166 170 171 166 166 165 163 165 162 158 158 158 158 156 154 149 146 147 150 151 144 143 143 135 126 121 117 112 108 103 101 99 98 97 98 102
157 103 70 355 308 325 273 248 145 123 212 216 226 112 89 345 68 79 137 135 118 318 57 44 52 107 167 183 181 167 156 154 156 160 154 146 151 152 155 157 159 163 170 171 165 170 171 174 179 179 177 175 173 172 174 175 175 173 170 173 171 168 175 175 172 175 173 169 171 172 170 167 166 167 168 166 158 158 160 158 158 151 146 145 138 131 127 123 116 112 107 106 104 102 100 97 98
72 85 105 271 276 260 257 263 173 161 201 206 258 95 114 340 12 86 20 90 107 82 61 29 25 68 145 164 156 154 152 153 157 164 154 141 144 147 152 159 165 167 172 175 171 171 171 170 176 180 181 181 180 176 175 177 178 177 175 177 171 169 176 179 176 176 178 175 175 179 179 175 172 172 175 177 171 171 170 162 161 156 148 147 143 137 134 128 122 118 113 112 112 108 101 96 96
67 98 169 226 239 231 248 255 207 160 150 181 216 148 130 153 122 146 63 61 96 91 66 56 47 44 88 128 144 149 151 154 159 165 158 146 146 148 154 162 170 173 176 178 176 179 181 177 174 180 182 184 186 182 181 181 184 187 185 181 179 179 179 182 180 178 180 178 179 180 179 177 174 175 179 182 181 181 178 169 168 164 149 143 141 138 137 132 127 123 118 118 121 114 103 97 94
113 132 168 214 210 241 274 206 136 121 153 166 168 131 128 166 164 133 135 155 136 103 64 65 73 65 96 123 139 147 152 156 161 165 166 163 159 159 161 166 174 178 181 181 178 182 188 185 181 184 182 184 189 189 186 186 187 191 193 190 189 190 190 190 185 183 181 174 174 171 168 171 172 175 177 181 183 185 186 181 177 170 152 140 134 136 136 135 132 126 123 120 123 120 109 103 93
160 134 168 231 222 315 330 360 110 134 154 138 127 112 106 163 153 127 164 167 161 151 150 117 122 144 134 136 144 150 155 159 164 167 172 176 173 171 172 173 179 182 183 183 182 184 188 189 187 187 184 182 190 193 190 190 190 192 196 198 199 196 195 195 191 189 183 171 163 159 155 160 168 170 172 181 184 186 188 186 181 170 156 146 139 139 138 139 137 130 131 126 124 128 124 123 121
176 154 179 227 174 52 330 331 18 109 133 133 134 97 87 157 132 140 143 133 214 209 188 174 167 165 157 153 155 158 160 163 169 172 176 181 181 181 182 182 185 187 184 184 188 188 188 190 188 186 186 187 193 197 195 193 193 195 196 201 206 201 197 197 195 193 188 175 166 162 158 164 175 176 178 188 188 188 189 184 181 172 160 154 151 151 148 146 145 142 143 140 138 137 135 150 173
179 216 206 220 119 106 262 310 347 27 106 116 111 102 137 154 107 162 137 143 225 223 204 186 168 165 165 163 162 164 166 170 175 178 181 184 187 188 189 188 189 192 190 189 191 192 192 190 188 188 188 193 197 201 201 195 194 198 197 200 205 202 198 197 196 196 192 181 174 172 172 183 193 196 204 207 195 189 188 183 178 176 168 163 164 167 166 157 156 161 160 160 152 135 119 128 175
196 246 228 226 155 142 219 227 322 344 85 109 121 143 152 98 4 228 155 183 218 209 203 177 169 170 166 162 162 167 173 178 182 185 186 187 190 191 192 191 191 194 195 194 193 193 196 194 191 190 190 194 198 202 203 197 196 200 200 200 203 201 197 197 197 196 193 184 177 178 184 197 199 201 214 219 207 189 182 182 180 185 180 175 180 186 183 167 163 179 174 164 156 148 139 135 165
191 234 234 230 188 163 180 168 246 15 91 138 135 104 108 137 196 246 190 225 226 210 185 151 164 165 160 160 168 176 179 184 189 191 191 191 193 193 192 193 193 194 195 197 196 194 198 199 194 191 192 194 198 200 201 198 197 198 201 204 206 207 199 198 198 193 192 187 180 183 189 199 200 205 216 220 215 197 183 185 189 195 193 190 195 205 202 179 182 196 175 151 159 174 175 194 223
193 213 221 234 207 170 163 155 176 103 118 115 85 97 223 190 173 184 226 243 229 195 128 125 147 152 161 171 177 182 183 188 192 193 195 197 197 194 193 194 195 197 198 198 198 197 199 200 198 196 195 195 198 200 200 199 195 194 203 207 207 212 204 197 198 193 192 191 185 187 191 197 203 213 217 215 216 206 195 198 199 204 212 211 206 213 219 209 204 200 178 168 175 194 222 232 232
198 194 202 223 171 160 157 147 168 166 151 105 91 246 265 229 175 234 237 233 215 165 124 129 142 153 173 179 182 185 186 191 192 194 198 199 197 198 197 195 195 199 202 200 199 200 200 200 201 201 199 197 198 200 202 201 197 195 202 207 205 210 209 199 198 194 194 197 192 192 196 199 208 218 217 211 213 209 204 207 206 209 222 224 217 219 224 223 209 192 184 190 195 219 236 230 221
182 182 204 213 175 163 165 161 180 182 176 157 158 233 268 256 206 243 253 231 188 153 146 150 151 166 180 181 188 189 190 194 194 194 196 197 196 199 201 197 196 200 203 201 200 203 202 201 203 204 203 202 200 201 203 202 201 199 199 204 205 209 210 203 202 197 198 205 200 197 200 202 208 217 216 212 211 208 205 207 207 209 218 220 219 223 224 218 202 192 201 209 214 226 231 233 233
169 178 212 228 198 177 171 165 181 174 203 187 165 242 279 284 229 223 248 232 172 165 173 165 163 175 184 186 189 189 195 198 195 192 193 197 196 197 201 200 198 200 203 202 202 205 204 204 205 205 205 205 203 202 202 202 204 202 200 205 209 213 209 204 204 201 203 211 208 202 203 203 206 212 214 217 218 213 209 209 207 209 214 216 218 221 220 209 197 204 215 213 217 227 233 241 247
151 154 180 222 204 205 198 174 173 168 203 181 134 328 274 229 231 226 233 209 167 169 177 180 180 183 186 190 190 192 198 195 193 197 200 201 199 197 201 202 200 199 202 204 204 206 207 205 206 206 206 207 206 205 202 203 207 206 205 208 211 213 208 203 204 203 206 212 213 211 208 206 206 209 213 219 224 222 217 215 214 213 214 216 217 218 215 203 201 209 214 215 221 233 242 243 244
121 132 132 169 188 246 221 183 161 170 189 154 129 298 255 227 229 228 225 194 162 173 185 193 193 190 194 193 192 199 197 190 193 201 204 204 203 201 203 204 202 200 201 202 204 207 207 206 206 206 207 209 210 209 205 203 209 211 210 211 212 214 210 205 205 205 206 210 214 216 215 212 208 207 211 218 223 225 222 219 220 219 215 215 216 217 215 208 208 213 218 223 228 237 241 232 228
129 147 104 147 183 252 232 185 159 170 201 144 133 237 253 245 240 235 225 187 171 188 198 201 200 198 202 198 196 201 198 196 200 203 204 205 205 205 206 206 204 204 202 201 204 205 204 204 205 206 208 210 212 212 208 205 208 212 213 214 214 216 215 210 209 208 208 209 213 216 219 218 214 209 208 215 221 223 222 220 221 221 216 214 215 215 215 213 217 221 224 226 230 232 230 228 235
144 155 199 208 193 251 254 202 175 176 214 154 141 225 265 259 247 247 221 177 182 198 208 209 208 206 205 206 202 202 203 203 203 203 204 206 206 207 208 208 206 206 206 205 205 203 203 204 205 207 209 210 212 213 213 209 209 212 216 218 216 217 219 217 214 212 212 212 213 217 219 221 220 213 208 211 217 220 222 221 223 223 217 213 213 215 214 214 218 223 224 223 226 229 230 234 240
194 161 182 210 198 233 278 241 195 172 150 188 188 219 270 262 251 255 205 178 188 200 214 215 215 214 207 209 207 205 205 203 203 203 205 206 206 208 208 208 208 208 208 208 207 204 203 205 207 209 210 211 212 213 215 213 212 213 217 219 219 218 220 222 220 216 215 215 216 218 220 222 224 221 214 211 215 220 222 224 226 224 219 215 214 216 216 216 220 224 224 222 224 229 232 236 239
196 163 184 226 204 198 221 258 211 160 146 195 217 229 241 250 280 284 210 183 187 201 215 216 216 218 212 211 209 207 204 202 203 203 204 205 206 208 208 209 209 209 209 209 209 207 205 206 208 210 212 212 212 213 214 215 215 215 218 220 221 220 221 224 225 221 218 218 219 220 221 223 226 227 222 216 217 221 224 226 226 224 221 218 217 218 218 220 224 227 227 223 225 229 233 238 238
170 169 199 233 208 191 201 222 182 161 170 195 208 233 244 250 277 289 253 196 189 206 215 217 220 219 215 214 212 210 204 206 210 207 206 205 204 206 207 208 208 208 208 208 210 210 207 207 209 210 211 212 212 213 213 214 215 216 218 220 222 223 223 225 227 226 224 222 222 223 223 225 226 229 228 224 221 223 227 228 227 225 222 220 219 219 220 222 225 225 224 224 224 228 233 237 236
173 183 198 203 199 209 212 220 185 167 177 210 208 222 242 250 254 256 261 228 205 215 218 222 227 224 219 213 214 214 209 212 212 212 210 206 204 205 206 207 207 207 207 207 208 209 208 207 206 208 209 210 210 210 210 210 211 213 216 218 220 222 223 225 227 229 228 226 225 226 226 227 227 229 230 229 226 226 228 229 229 225 223 222 219 219 220 224 224 221 221 223 222 225 230 233 233
179 192 209 201 194 231 225 216 202 170 172 221 217 220 239 245 248 241 239 232 225 225 223 227 227 227 227 218 216 214 213 217 212 212 212 207 206 206 205 205 204 204 206 206 206 207 209 207 206 206 207 208 208 208 208 208 208 209 211 214 217 219 221 223 226 228 229 228 227 227 228 229 229 229 230 229 227 227 228 230 229 225 221 221 221 221 223 225 225 222 223 223 222 223 224 224 227
192 199 210 209 200 228 243 218 203 173 179 235 228 228 243 245 250 245 229 222 225 224 221 227 227 226 230 225 222 217 217 219 212 211 210 206 206 205 204 203 201 201 203 205 206 207 208 208 209 209 207 207 209 209 208 208 210 209 210 213 215 217 219 221 223 225 227 229 228 228 229 231 231 231 231 230 228 227 227 228 228 225 222 221 222 223 225 226 225 223 222 221 221 223 223 221 220
213 209 196 213 207 207 296 301 216 166 190 252 251 236 249 254 255 250 236 224 223 221 219 222 224 225 228 226 224 218 216 217 210 211 207 203 203 203 202 201 201 203 204 205 206 207 206 208 210 210 208 208 210 210 210 211 213 213 213 215 215 216 219 221 224 226 227 228 229 229 230 231 232 232 231 231 230 229 228 228 228 226 224 222 222 222 223 224 224 222 221 221 220 222 225 224 219
219 212 188 219 205 181 246 288 335 147 184 197 329 281 266 257 263 258 242 232 229 225 223 224 222 222 224 222 220 211 207 210 211 212 207 202 202 201 200 201 201 202 203 203 205 205 206 208 210 210 210 210 211 212 213 214 215 215 217 219 220 221 223 225 227 229 229 228 229 229 230 231 231 232 232 231 232 231 230 230 229 227 225 224 223 222 221 222 222 222 220 221 220 217 220 222 221
222 217 204 221 202 189 195 174 118 7 347 21 42 324 283 234 246 256 245 236 239 232 230 235 231 228 231 230 225 214 206 204 205 211 209 201 201 201 201 202 202 201 202 204 204 205 207 208 209 210 211 211 211 213 214 213 213 214 215 218 223 227 230 230 229 230 229 228 229 229 230 230 231 232 232 231 232 233 233 232 231 229 227 225 224 223 223 223 223 222 221 220 220 218 217 219 219
224 222 212 212 182 152 138 127 105 41 311 285 105 295 283 252 241 254 255 247 247 241 235 239 237 230 231 235 231 224 220 211 205 208 206 201 201 202 203 203 201 202 205 207 207 207 208 210 210 210 211 212 213 213 212 210 209 209 209 210 214 218 222 225 225 227 226 226 228 230 230 230 230 231 231 231 232 233 234 234 233 231 228 226 225 225 225 224 224 223 222 221 222 222 219 217 216
219 212 194 195 132 120 143 141 127 159 246 263 148 192 269 297 265 253 257 255 256 251 242 241 240 234 226 223 224 222 223 220 216 213 207 205 202 200 203 203 201 203 208 210 209 209 210 211 211 210 211 213 213 213 211 209 209 209 209 210 211 213 217 222 224 226 226 227 229 229 230 231 231 230 230 230 232 233 234 234 234 233 230 228 227 227 227 227 226 225 224 224 224 223 220 217 216
225 200 174 178 136 135 159 150 166 203 241 304 331 150 260 283 260 239 238 252 265 256 245 240 232 231 230 226 222 220 219 215 213 214 210 209 206 202 203 204 204 207 210 210 209 210 212 212 213 212 212 214 214 213 212 211 210 211 211 212 215 217 220 224 225 226 228 229 230 231 231 232 232 231 231 231 232 233 234 234 234 234 233 231 229 229 229 229 228 227 226 225 224 223 221 220 219
231 194 170 179 152 145 151 135 158 40 36 274 258 136 230 268 272 273 238 244 263 256 243 238 231 226 226 227 225 223 221 215 209 208 208 210 210 208 207 206 207 210 211 210 210 211 212 213 213 213 214 215 215 214 214 214 214 213 213 214 218 221 224 226 227 228 228 229 231 232 232 233 233 233 233 233 234 234 234 234 234 234 234 233 231 231 231 231 230 228 226 224 223 223 223 223 222
211 136 106 91 94 95 100 118 112 54 310 236 205 168 226 262 265 266 229 229 253 257 247 235 231 228 225 224 226 225 222 218 212 210 208 209 212 212 212 211 211 212 212 212 212 212 212 212 212 213 215 215 215 215 216 216 216 215 215 217 220 223 225 226 227 229 229 228 229 231 231 232 232 232 232 232 233 234 235 236 234 232 233 233 233 232 232 232 231 230 227 225 224 224 225 225 224
131 101 82 66 51 48 52 60 78 76 265 224 178 180 208 264 263 234 210 218 235 246 252 245 235 233 230 224 225 223 217 212 211 212 212 212 213 214 212 214 215 214 214 213 214 213 212 212 211 213 216 216 215 215 216 218 217 216 218 220 222 224 224 223 225 227 227 226 228 229 230 231 231 231 231 231 232 233 234 236 235 233 232 233 233 233 233 233 232 231 229 227 227 226 226 226 225
124 102 109 96 31 18 27 14 57 204 248 214 180 178 183 233 255 237 233 230 229 235 234 240 239 234 233 226 224 222 212 207 205 208 214 213 215 213 209 212 215 215 213 213 213 213 213 212 212 214 217 216 216 216 216 218 218 218 221 222 224 226 225 224 225 227 227 226 228 230 229 230 230 231 231 231 232 232 232 234 236 236 234 234 234 234 234 234 233 232 231 228 228 227 227 226 225
133 128 142 135 101 33 177 245 196 224 249 240 180 161 190 236 243 256 258 244 229 232 225 230 236 234 236 229 225 223 208 199 199 205 212 211 213 212 207 208 210 211 211 212 212 212 213 213 212 214 217 217 216 216 217 218 219 221 223 224 226 227 226 227 228 230 230 229 230 230 229 229 229 229 230 231 233 232 231 232 234 236 236 236 236 236 236 236 234 233 233 231 229 228 227 226 226
156 157 162 160 148 157 204 212 240 249 264 258 160 141 237 263 239 235 248 248 234 224 225 229 226 221 228 228 219 207 197 195 197 203 208 209 212 212 210 209 207 208 209 210 211 212 212 212 212 214 218 219 216 216 218 218 220 223 224 225 227 227 228 229 231 233 233 232 231 231 231 231 230 231 232 234 235 233 232 233 234 236 238 238 237 237 238 237 236 235 235 235 233 230 228 228 228
164 150 143 165 167 173 196 189 199 229 266 273 185 163 199 212 230 227 237 256 260 231 229 237 239 228 208 199 180 166 182 195 192 196 202 205 206 205 208 208 207 208 208 208 209 210 210 211 211 214 218 219 217 217 218 219 221 223 224 227 228 228 230 231 233 235 235 235 234 234 235 235 235 236 237 238 238 236 235 236 237 238 239 240 240 240 240 239 237 236 236 239 239 235 231 229 228
209 121 134 189 181 147 151 184 187 170 181 255 209 228 212 199 273 272 257 276 279 238 233 235 245 246 177 162 173 170 183 194 189 191 199 206 204 202 204 204 205 207 207 207 208 208 210 212 212 214 218 218 217 217 218 220 223 224 225 228 230 231 232 233 234 236 237 237 238 239 239 240 241 242 242 243 242 242 242 241 239 238 239 240 242 243 243 242 241 238 238 239 241 238 233 231 229
174 163 174 194 136 118 130 239 175 104 197 243 193 243 288 307 280 267 253 268 271 244 232 222 226 225 190 190 197 195 198 198 196 196 201 208 206 205 206 207 208 208 208 209 210 211 212 213 213 215 217 219 217 218 220 222 223 225 227 228 230 232 233 235 236 238 239 240 242 244 245 246 247 247 247 248 248 247 246 243 240 239 240 241 243 245 246 246 246 245 243 241 241 239 235 231 229
141 182 180 121 72 102 130 219 338 100 225 265 215 229 270 295 268 259 233 244 256 249 233 227 227 209 204 215 211 211 210 205 210 213 218 222 213 209 209 211 213 214 214 215 215 215 215 216 217 217 218 219 219 220 221 223 224 226 228 229 231 233 235 238 240 242 243 243 244 246 248 250 251 251 251 251 251 249 247 245 242 241 241 241 244 247 249 249 248 245 243 242 241 240 238 234 231
146 171 163 134 160 200 164 179 208 192 227 278 262 239 235 223 230 252 226 229 242 253 239 223 222 204 210 223 220 223 223 219 226 227 229 228 215 211 209 209 213 215 216 218 217 218 218 220 221 222 223 223 224 224 224 225 227 228 231 233 234 236 238 240 243 245 246 247 248 249 250 251 252 253 254 253 252 250 247 245 242 242 243 243 245 248 251 252 250 243 240 242 241 238 237 234 232
91 140 168 166 175 186 177 176 164 171 214 259 283 277 239 228 207 193 221 222 222 239 239 220 211 204 211 221 218 218 216 214 217 218 220 215 211 213 207 204 205 206 210 212 212 214 215 218 219 220 222 223 225 226 226 226 227 229 233 234 235 237 238 240 242 244 246 248 249 250 250 252 253 254 255 255 254 251 248 245 244 244 243 243 245 250 253 255 253 247 242 242 242 239 236 233 232
161 174 185 183 169 134 165 188 144 140 179 216 255 266 255 247 198 194 215 217 207 218 226 222 212 207 215 220 213 209 209 212 212 210 214 212 210 209 202 200 199 200 205 206 208 211 212 214 216 217 218 219 220 222 222 224 225 227 230 232 233 235 236 238 241 242 245 247 249 250 251 253 254 254 255 256 256 254 252 250 248 246 244 244 247 251 255 254 253 251 245 242 241 240 239 237 237
181 187 185 181 175 138 158 212 202 167 179 179 195 250 265 256 210 204 214 215 210 208 210 219 216 210 218 222 213 206 201 208 211 207 207 207 202 195 188 188 192 195 199 201 204 206 208 211 212 213 215 216 217 217 217 220 221 223 227 229 231 233 235 238 239 241 243 244 246 248 250 251 251 252 254 255 257 256 253 251 249 247 246 245 247 253 259 257 253 252 249 244 239 237 237 236 234